Monroe, MI

10:34 PM EDT on May 26, 2017 (GMT -0400)
Custer

Weather History for KTTF - September, 2012

Change the Weather History Date:

Monday, September 24, 2012

  Actual Average Record
Temperature  
Mean Temperature 48 °F -  
Max Temperature 64 °F 68 °F 89 °F (2010)
Min Temperature 33 °F 47 °F 33 °F (2012)
Degree Days  
Heating Degree Days 16    
Moisture  
Dew Point 36 °F    
Average Humidity 64    
Maximum Humidity 100    
Minimum Humidity 30    
Precipitation  
Precipitation 0.00 in - - ()
Sea Level Pressure  
Sea Level Pressure 30.10 in    
Wind  
Wind Speed 4 mph (SW)    
Max Wind Speed 17 mph    
Max Gust Speed 25 mph    
Visibility 10 miles    
Events      
Averages and records for this station are not official NWS values.
T = Trace of Precipitation, MM = Missing Value Source: NWS Daily Summary

Daily Weather History Graph

Daily Weather History Graph

Search for Another Location

Airport or City:

Trip Planner

Search our weather history database for the weather conditions in past years. The results will help you decide how hot, cold, wet, or windy it might be!

Date:

Astronomy

Sep. 24, 2012 Rise Set
Actual Time 7:23 AM EDT 7:26 PM EDT
Civil Twilight 6:55 AM EDT 7:54 PM EDT
Nautical Twilight 6:23 AM EDT 8:26 PM EDT
Astronomical Twilight 5:50 AM EDT 8:59 PM EDT
Moon 4:16 PM EDT (9/24) 1:34 AM EDT (9/24)
Length of Visible Light 12h 58m
Length of Day
12h 02m
Waxing Gibbous, 70% of the Moon is Illuminated
Sep 24
Waxing Gibbous
Sep 29
Full
Oct 8
Last Quarter
Oct 15
New
Oct 21
First Quarter

Hourly Weather History & Observations

Time (EDT) Temp. Windchill Dew Point Humidity Pressure Visibility Wind Dir Wind Speed Gust Speed Precip Events Conditions
12:11 AM 39.2 °F - 37.4 °F 93% 30.21 in 10.0 mi Calm Calm - N/A   Clear
12:31 AM 39.2 °F - 37.4 °F 93% 30.20 in 10.0 mi Calm Calm - N/A   Clear
12:51 AM 39.2 °F - 37.4 °F 93% 30.20 in 10.0 mi Calm Calm - N/A   Clear
1:12 AM 39.2 °F - 37.4 °F 93% 30.20 in 10.0 mi Calm Calm - N/A   Clear
1:32 AM 37.4 °F - 37.4 °F 100% 30.20 in 10.0 mi Calm Calm - N/A   Clear
1:52 AM 37.4 °F - 37.4 °F 100% 30.20 in 10.0 mi Calm Calm - N/A   Clear
2:12 AM 37.4 °F - 37.4 °F 100% 30.20 in 1.5 mi Calm Calm - N/A   Mist
2:32 AM 37.4 °F - 37.4 °F 100% 30.20 in 2.5 mi Calm Calm - N/A   Clear
2:52 AM 37.4 °F - 37.4 °F 100% 30.20 in 4.0 mi Calm Calm - N/A   Clear
3:32 AM 37.4 °F - 35.6 °F 93% 30.19 in 10.0 mi Calm Calm - N/A   Clear
3:52 AM 35.6 °F 32.8 °F 35.6 °F 100% 30.20 in 10.0 mi West 3.5 mph - N/A   Clear
4:33 AM 37.4 °F - 35.6 °F 93% 30.20 in 10.0 mi Calm Calm - N/A   Clear
4:53 AM 37.4 °F - 35.6 °F 93% 30.20 in 10.0 mi Calm Calm - N/A   Clear
5:13 AM 35.6 °F - 35.6 °F 100% 30.20 in 10.0 mi Calm Calm - N/A   Clear
5:33 AM 35.6 °F - 35.6 °F 100% 30.20 in 10.0 mi Calm Calm - N/A   Clear
5:53 AM 33.8 °F - 33.8 °F 100% 30.20 in 10.0 mi Calm Calm - N/A   Clear
6:13 AM 35.6 °F - 35.6 °F 100% 30.20 in 10.0 mi Calm Calm - N/A   Clear
6:33 AM 35.6 °F - 35.6 °F 100% 30.19 in 10.0 mi Calm Calm - N/A   Clear
6:53 AM 35.6 °F - 35.6 °F 100% 30.20 in 10.0 mi Calm Calm - N/A   Clear
7:13 AM 35.6 °F - 33.8 °F 93% 30.20 in 10.0 mi Calm Calm - N/A   Clear
7:34 AM 35.6 °F - 35.6 °F 100% 30.20 in 10.0 mi Calm Calm - N/A   Clear
7:54 AM 35.6 °F - 35.6 °F 100% 30.20 in 10.0 mi Calm Calm - N/A   Clear
8:14 AM 37.4 °F - 37.4 °F 100% 30.20 in 10.0 mi Calm Calm - N/A   Clear
8:54 AM 42.8 °F 39.3 °F 39.2 °F 87% 30.20 in 10.0 mi WSW 5.8 mph - N/A   Clear
9:14 AM 44.6 °F 41.4 °F 39.2 °F 81% 30.20 in 10.0 mi WSW 5.8 mph - N/A   Clear
9:34 AM 46.4 °F 42.9 °F 39.2 °F 76% 30.20 in 10.0 mi SW 6.9 mph - N/A   Clear
9:54 AM 48.2 °F - 39.2 °F 71% 30.20 in 10.0 mi SW 6.9 mph - N/A   Clear
10:15 AM 51.8 °F - 39.2 °F 62% 30.20 in 10.0 mi SW 12.7 mph - N/A   Clear
10:35 AM 53.6 °F - 39.2 °F 58% 30.19 in 10.0 mi WSW 11.5 mph - N/A   Clear
10:55 AM 53.6 °F - 39.2 °F 58% 30.19 in 10.0 mi WSW 11.5 mph - N/A   Clear
11:15 AM 55.4 °F - 37.4 °F 51% 30.19 in 10.0 mi WSW 13.8 mph 18.4 mph N/A   Clear
11:40 AM 57.2 °F - 37.4 °F 48% 30.18 in 10.0 mi SW 13.8 mph - N/A   Clear
11:55 AM 59.0 °F - 37.4 °F 45% 30.17 in 10.0 mi SW 9.2 mph - N/A   Clear
12:15 PM 57.2 °F - 35.6 °F 44% 30.16 in 10.0 mi WSW 12.7 mph 18.4 mph N/A   Clear
12:35 PM 57.2 °F - 33.8 °F 41% 30.15 in 10.0 mi SW 16.1 mph 20.7 mph N/A   Clear
12:56 PM 59.0 °F - 35.6 °F 42% 30.14 in 10.0 mi SW 11.5 mph 21.9 mph N/A   Clear
1:51 PM 60.8 °F - 33.8 °F 36% 30.10 in 10.0 mi SSW 10.4 mph 24.2 mph N/A   Clear
2:11 PM 62.6 °F - 35.6 °F 37% 30.09 in 10.0 mi WSW 12.7 mph 21.9 mph N/A   Clear
2:31 PM 62.6 °F - 33.8 °F 34% 30.07 in 10.0 mi SW 15.0 mph 23.0 mph N/A   Clear
3:11 PM 62.6 °F - 33.8 °F 34% 30.05 in 10.0 mi SW 16.1 mph 24.2 mph N/A   Clear
3:31 PM 64.4 °F - 33.8 °F 32% 30.04 in 10.0 mi SW 17.3 mph 20.7 mph N/A   Clear
3:51 PM 64.4 °F - 33.8 °F 32% 30.03 in 10.0 mi SW 16.1 mph 25.3 mph N/A   Clear
4:12 PM 64.4 °F - 33.8 °F 32% 30.02 in 10.0 mi SW 13.8 mph 20.7 mph N/A   Clear
4:52 PM 64.4 °F - 33.8 °F 32% 30.00 in 10.0 mi SW 16.1 mph 21.9 mph N/A   Clear
5:12 PM 64.4 °F - 33.8 °F 32% 29.99 in 10.0 mi SW 16.1 mph - N/A   Clear
5:32 PM 64.4 °F - 33.8 °F 32% 29.98 in 10.0 mi SW 13.8 mph 24.2 mph N/A   Clear
5:52 PM 64.4 °F - 32.0 °F 30% 29.97 in 10.0 mi SW 15.0 mph 23.0 mph N/A   Clear
6:13 PM 62.6 °F - 32.0 °F 32% 29.97 in 10.0 mi SW 17.3 mph 24.2 mph N/A   Clear
6:33 PM 62.6 °F - 33.8 °F 34% 29.97 in 10.0 mi SW 10.4 mph 19.6 mph N/A   Clear
6:53 PM 62.6 °F - 32.0 °F 32% 29.97 in 10.0 mi SW 13.8 mph 19.6 mph N/A   Clear
7:13 PM 60.8 °F - 33.8 °F 36% 29.96 in 10.0 mi SW 10.4 mph 16.1 mph N/A   Clear
7:33 PM 57.2 °F - 33.8 °F 41% 29.96 in 10.0 mi SW 8.1 mph - N/A   Clear
7:53 PM 57.2 °F - 35.6 °F 44% 29.96 in 10.0 mi SW 4.6 mph - N/A   Clear
8:13 PM 55.4 °F - 33.8 °F 44% 29.96 in 10.0 mi SW 3.5 mph - N/A   Clear
8:33 PM 53.6 °F - 35.6 °F 51% 29.96 in 10.0 mi SSW 4.6 mph - N/A   Clear
8:54 PM 51.8 °F - 35.6 °F 54% 29.95 in 10.0 mi South 5.8 mph - N/A   Clear
9:14 PM 51.8 °F - 35.6 °F 54% 29.95 in 10.0 mi SSW 8.1 mph - N/A   Clear
9:34 PM 53.6 °F - 35.6 °F 51% 29.96 in 10.0 mi SSW 4.6 mph - N/A   Clear
9:54 PM 53.6 °F - 35.6 °F 51% 29.96 in 10.0 mi SSW 6.9 mph - N/A   Clear
10:14 PM 53.6 °F - 35.6 °F 51% 29.95 in 10.0 mi SSW 6.9 mph - N/A   Clear
10:34 PM 55.4 °F - 35.6 °F 47% 29.95 in 10.0 mi SSW 8.1 mph - N/A   Clear
10:54 PM 55.4 °F - 35.6 °F 47% 29.95 in 10.0 mi SW 9.2 mph - N/A   Clear
11:14 PM 55.4 °F - 33.8 °F 44% 29.96 in 10.0 mi SSW 9.2 mph - N/A   Clear
11:35 PM 57.2 °F - 33.8 °F 41% 29.96 in 10.0 mi SW 8.1 mph - N/A   Clear
11:55 PM 55.4 °F - 35.6 °F 47% 29.96 in 10.0 mi SW 10.4 mph - N/A   Clear